Regional Weather Roundup
Issued by NWS

Home | Current Version | Previous Version | Text Only | Print | Product List | Glossary On
Versions: 1 2 3 4 5 6 7 8 9 10 11 12 13 14 15 16 17 18 19 20 21 22 23 24 25 26 27 28 29 30 31 32 33 34 35 36 37 38 39 40 41 42 43 44 45 46 47 48 49 50
000
ASUS43 KMKX 232000
RWRWI

WISCONSIN REGIONAL WEATHER ROUNDUP
NATIONAL WEATHER SERVICE MILWAUKEE/SULLIVAN WI
300 PM CDT SAT JUL 23 2016

NOTE: "FAIR" INDICATES FEW OR NO CLOUDS BELOW 12,000 FEET WITH NO
SIGNIFICANT WEATHER AND/OR OBSTRUCTIONS TO VISIBILITY.

WIZ001-002-006>008-014>016-023>028-232100-
NORTHWEST WISCONSIN

CITY           SKY/WX    TMP DP  RH WIND       PRES   REMARKS
SUPERIOR ARPT  CLOUDY    65  60  84 E15G21    29.89F
ASHLAND        CLOUDY    73  65  75 N6        29.91F
HAYWARD        LGT RAIN  76  67  73 S15       29.92F
SIREN          LGT RAIN  72  70  94 SW7       29.90F
CUMBERLAND     LGT RAIN  70  68  94 S9        29.91F
RICE LAKE      LGT RAIN  71  68  92 SE10      29.91F
CHETEK         RAIN      72  70  95 SE5       29.92F
LADYSMITH      CLOUDY    77  70  78 S10       29.97F
EAU CLAIRE     NOT AVBL
MENOMONIE      RAIN      71  71  99 SE14      29.90F
NEW RICHMOND   RAIN      70  69  98 E9        29.89F
OSCEOLA        LGT RAIN  72  72 100 SE16      29.92S
$$

WIZ003>005-009-010-017-018-232100-
NORTH CENTRAL WISCONSIN

CITY           SKY/WX    TMP DP  RH WIND       PRES   REMARKS
MANITOWISH WTR CLOUDY    81  65  58 SE8       29.97F HX  83
ARBOR VITAE    CLOUDY    82  68  60 S6        29.98F HX  85
WOODRUFF       CLOUDY    82  68  60 S6        29.98F HX  85
RHINELANDER    CLOUDY    81  66  60 S7        29.99F HX  83
EAGLE RIVER    CLOUDY    82  58  44 S7        30.00S HX  82
LAND O LAKES   CLOUDY    85  60  42 S9        30.00F HX  85
PHILLIPS       CLOUDY    78  71  77 S7        29.96F HX  81
TOMAHAWK       CLOUDY    80  67  64 CALM      29.98F HX  82
MEDFORD        TSTM      76  72  88 SW9G16    29.99S
MERRILL        CLOUDY    81  70  69 S3        29.98F HX  84
$$

WIZ029-030-035-036-043>047-232100-
CENTRAL WISCONSIN

CITY           SKY/WX    TMP DP  RH WIND       PRES   REMARKS
WAUSAU         CLOUDY    80  69  69 S7        29.96F HX  83
MOSINEE        MOSUNNY   79  72  78 S6        29.99F HX  82
MARSHFIELD     CLOUDY    77  69  76 W7        29.98F
STEVENS POINT  CLOUDY    79  70  72 S7        29.98F HX  82
WAUPACA        CLOUDY    85  71  63 SE5       29.97F HX  90
WAUTOMA        CLOUDY    81  77  88 S6        29.98S HX  88
WISC RAPIDS    CLOUDY    80  66  62 W9        29.99S HX  82
CAMP DOUGLAS   NOT AVBL
$$

WIZ011>013-019>022-031-037>040-048>050-232100-
NORTHEAST WISCONSIN

CITY           SKY/WX    TMP DP  RH WIND       PRES   REMARKS
ANTIGO         CLOUDY    78  66  67 CALM      30.01F HX  80
SHAWANO        CLOUDY    85  66  52 SE3       29.97F HX  86
OCONTO         CLOUDY    80  67  64 E5        29.96F HX  83
STURGEON BAY   CLOUDY    81  65  58 MISG      29.98F HX  83
GREEN BAY      CLOUDY    83  71  67 S8        29.97F HX  87
MANITOWOC      NOT AVBL
APPLETON       CLOUDY    84  66  54 SW6       29.97F HX  86
CLINTONVILLE   CLOUDY    82  70  65 E5        29.97F HX  86
OSHKOSH        CLOUDY    85  74  69 W5        29.97F HX  92
$$

WIZ032>034-041-042-053>061-232100-
SOUTHWEST WISCONSIN

CITY           SKY/WX    TMP DP  RH WIND       PRES   REMARKS
LA CROSSE      TSTM      72  70  93 W8        29.98R FOG
SPARTA         RAIN      70  70  98 CALM      29.96F
VIROQUA        CLOUDY    70  70 100 E7        29.93F
BOSCOBEL       CLOUDY    75  72  90 CALM      29.93F
PRAIRIE DU CHI CLOUDY    72  70  95 E5        29.92R
PLATTEVILLE    CLOUDY    72  72 100 E13       29.94F
$$

WIZ056-057-062-063-064-067-068-232100-
SOUTH CENTRAL WISCONSIN

CITY           SKY/WX    TMP DP  RH WIND       PRES   REMARKS
REEDSBURG      LGT RAIN N/A N/A N/A NE6       29.95F
BARABOO/DELLS  RAIN      73  70  88 CALM      29.98F
LONE ROCK      NOT AVBL
MINERAL POINT  LGT RAIN  72  70  94 E8        29.94F
MADISON        TSTM      70  68  93 NE10      29.95F FOG
MIDDLETON      CLOUDY    70  69  96 SE7       29.97F
WATERTOWN      TSTM      75  72  89 SE6       29.98F
MONROE         TSTM      70  70 100 NW13G24   29.99F VSB 3/4
JANESVILLE     TSTM      84  79  84 CALM      29.97F HX  96
$$

WIZ051-052-058>065-066-070>072-232100-
SOUTHEAST WISCONSIN

CITY           SKY/WX    TMP DP  RH WIND       PRES   REMARKS
MILWAUKEE      CLOUDY    85  73  67 SE9       29.96F HX  91
WAUKESHA       PTSUNNY   82  73  74 SW5       30.00S THUNDER HX  88
MILWAUKEE/TIMM SUNNY     84  70  61 E6        29.98F HX  88
RACINE         CLOUDY    84  74  71 SE7       29.98F HX  91
BURLINGTON     CLOUDY    85  76  74 SW3       29.98S HX  95
KENOSHA        CLOUDY    86  75  69 SE8       29.98F HX  95
FOND DU LAC    CLOUDY    85  74  69 SW7       29.97F HX  92
SHEBOYGAN      CLOUDY    84  70  62 SE6       29.98F HX  88
WEST BEND      CLOUDY    84  70  61 CALM      29.99F HX  88
JUNEAU         TSTM      79  77  93 SW5       30.01S HX  84
$$

LSZ147-162-232100-
LAKE SUPERIOR

STATION/POSITION TIME  TEMP    WIND        PRES    WAVE
                       AIR SEA DIR/SP/G            HT/PER
                 (UTC) (F)     (DEG/KT/KT) (MB)    (FT/S)
W MID LAKE BUOY  1850   61 59   60/ 12/ 12 1014.3F   1
DEVILS ISLAND    1900   63      60/ 10/ 11 1013.9F
PORT WING        1900   65      30/ 17/ 18 1012.9F
SAXON HARBOR     1900   71     300/  2/  3 1013.2
$$

LMZ867-665-643>646-232100-
LAKE MICHIGAN

STATION/POSITION TIME  TEMP    WIND        PRES    WAVE
                       AIR SEA DIR/SP/G            HT/PER
                 (UTC) (F)     (DEG/KT/KT) (MB)    (FT/S)
CHAMBERS ISLAND  1900   81      80/  4/  6 1015.2F
S GREEN BAY BUOY 1900   76 76   60/  6/  8   N/A
N MID LAKE BUOY  1850   72 72   70/  4/  4 1014.8F   1
NORTHPORT PIER   1900   75     130/  4/  4 1015.2F
KEWAUNEE LAKESHO 1900   74      40/  2/  5 1015.3F
SHEBOYGAN LAKESH 1900   70      10/  3/  3 1015.9R
PORT WASHINGTON  1940   68      40/  4/  7 1015.9F
MILWAUKEE LAKESH 1910   71      40/  5/  5   N/A
S MID LAKE BUOY  1850   78 77  120/  2/  2 1014.8S   0
KENOSHA   LAKESH 1900   81     150/  4/  6 1014.9F
$$

TC  - TEMPERATURE IN CELSIUS
VSB - VISIBILITY IN STATUTE MILES
WCI - WIND CHILL INDEX
HX  - HEAT INDEX





USA.gov is the U.S. government's official web portal to all federal, state and local government web resources and services.